Location: D�pe
(52.6057°N, 8.1808°E)
Time: 06:59:12
(UTC+00:00)

SL-4 R/B - Pass Details

Date: 29 October 2020
Orbit: 427 x 665 km, 51.6° (Epoch: 01 December)

Event Time Altitude Azimuth Distance (km) Brightness Sun altitude
Rises 19:07:35 0° 281° (WNW) 2,476 6.6 -28.5°
Reaches altitude 10° 19:09:54 10° 269° (W) 1,632 5.3 -28.8°
Enters shadow 19:11:25 19° 249° (WSW) 1,190 4.2 -29.0°
